30.06.2024;16:00;3
30.06.2024;15:00;5
30.06.2024;14:00;5
30.06.2024;13:00;2
30.06.2024;12:00;2
30.06.2024;11:00;6
30.06.2024;10:00;6
30.06.2024;09:00;9
30.06.2024;08:00;30
30.06.2024;07:00;22
30.06.2024;06:00;20
30.06.2024;05:00;26
30.06.2024;04:00;38
30.06.2024;03:00;35
30.06.2024;02:00;29
30.06.2024;01:00;30
29.06.2024;24:00;36
29.06.2024;23:00;43
29.06.2024;22:00;34
29.06.2024;21:00;38
29.06.2024;20:00;41
29.06.2024;19:00;35
29.06.2024;18:00;33
29.06.2024;17:00;23
29.06.2024;16:00;19
29.06.2024;15:00;17
29.06.2024;14:00;8
29.06.2024;13:00;8
29.06.2024;12:00;5
29.06.2024;11:00;11
29.06.2024;10:00;19
29.06.2024;09:00;20
29.06.2024;08:00;24
29.06.2024;07:00;33
29.06.2024;06:00;26
29.06.2024;05:00;21
29.06.2024;04:00;35
29.06.2024;03:00;47
29.06.2024;02:00;50
29.06.2024;01:00;54
28.06.2024;24:00;34
28.06.2024;23:00;31
28.06.2024;22:00;26
28.06.2024;21:00;29
28.06.2024;20:00;23
28.06.2024;19:00;13
28.06.2024;18:00;11
28.06.2024;17:00;2
28.06.2024;16:00;18
28.06.2024;15:00;19
28.06.2024;14:00;8
28.06.2024;13:00;5
28.06.2024;12:00;3
28.06.2024;11:00;2
28.06.2024;10:00;2
28.06.2024;09:00;11
28.06.2024;08:00;33
28.06.2024;07:00;21
28.06.2024;06:00;27
28.06.2024;05:00;27
28.06.2024;04:00;21
28.06.2024;03:00;26
28.06.2024;02:00;14
28.06.2024;01:00;12
27.06.2024;24:00;24
27.06.2024;23:00;12
27.06.2024;22:00;2
27.06.2024;21:00;14
27.06.2024;20:00;27
27.06.2024;19:00;2
27.06.2024;18:00;32
27.06.2024;17:00;27
27.06.2024;16:00;2
27.06.2024;15:00;2
27.06.2024;14:00;2
27.06.2024;13:00;40
27.06.2024;12:00;24
27.06.2024;11:00;13
27.06.2024;10:00;14
27.06.2024;09:00;21
27.06.2024;08:00;29
27.06.2024;07:00;30
27.06.2024;06:00;27
27.06.2024;05:00;24
27.06.2024;04:00;27
27.06.2024;03:00;27
27.06.2024;02:00;21
27.06.2024;01:00;19
26.06.2024;24:00;34
26.06.2024;23:00;18
26.06.2024;22:00;26
26.06.2024;21:00;28
26.06.2024;20:00;21
26.06.2024;19:00;34
26.06.2024;18:00;33
26.06.2024;17:00;34
26.06.2024;16:00;27
26.06.2024;15:00;32
26.06.2024;14:00;21
26.06.2024;13:00;20
26.06.2024;12:00;25
26.06.2024;11:00;30
26.06.2024;10:00;28
26.06.2024;09:00;30
26.06.2024;08:00;32
26.06.2024;07:00;28
26.06.2024;06:00;28
26.06.2024;05:00;25
26.06.2024;04:00;25
26.06.2024;03:00;30
26.06.2024;02:00;24
26.06.2024;01:00;22
25.06.2024;24:00;21
25.06.2024;23:00;24
25.06.2024;22:00;26
25.06.2024;21:00;24
25.06.2024;20:00;34
25.06.2024;19:00;26
25.06.2024;18:00;30
25.06.2024;17:00;21
25.06.2024;16:00;18
25.06.2024;15:00;15
25.06.2024;14:00;14
25.06.2024;13:00;16
25.06.2024;12:00;20
25.06.2024;11:00;21
25.06.2024;10:00;22
25.06.2024;09:00;22
25.06.2024;08:00;21
25.06.2024;07:00;19
25.06.2024;06:00;18
25.06.2024;05:00;17
25.06.2024;04:00;16
25.06.2024;03:00;11
25.06.2024;02:00;17
25.06.2024;01:00;20
